Weather History for KLWT - June, 2013

Change the Weather History Date:

Sunday, June 30, 2013

  Actual Average Record
Temperature  
Mean Temperature 70 °F 62 °F  
Max Temperature 86 °F 76 °F 98 °F (1990)
Min Temperature 54 °F 48 °F 35 °F (1988)
Degree Days  
Heating Degree Days 0 5  
Month to date heating degree days 220 227  
Since 1 June heating degree days 220 227  
Since 1 July heating degree days 8069 8201  
Cooling Degree Days 5 1  
Month to date cooling degree days 16 20  
Year to date cooling degree days 19 22  
Since 1 June cooling degree days 16 20  
Growing Degree Days 20 (Base 50)    
Moisture  
Dew Point 56 °F    
Average Humidity 62    
Maximum Humidity 93    
Minimum Humidity 30    
Precipitation  
Precipitation 0.00 in 0.08 in 0.76 in (1992)
Month to date precipitation 4.56 3.08  
Year to date precipitation 14.19 9.34  
Snow  
Snow 0.00 in - - ()
Snow Depth 0.00 in    
Sea Level Pressure  
Sea Level Pressure 30.05 in    
Wind  
Wind Speed 5 mph (ENE)    
Max Wind Speed 16 mph    
Max Gust Speed 18 mph    
Visibility 10 miles    
Events      
T = Trace of Precipitation, MM = Missing Value Source: NWS Daily Summary

Daily Weather History Graph

Daily Weather History Graph

Search for Another Location

Airport or City:

Trip Planner

Search our weather history database for the weather conditions in past years. The results will help you decide how hot, cold, wet, or windy it might be!

Date:

Astronomy

Jun. 30, 2013 Rise Set
Actual Time 5:26 AM MDT 9:16 PM MDT
Civil Twilight 4:46 AM MDT 9:56 PM MDT
Nautical Twilight 3:52 AM MDT 10:50 PM MDT
Astronomical Twilight 2:32 AM MDT 12:09 AM MDT
Moon 12:46 AM MDT (6/30) 2:17 PM MDT (6/30)
Length of Visible Light 17h 09m
Length of Day
15h 50m
Last Quarter, 45% of the Moon is Illuminated
Jun 30
Last Quarter
Jul 8
New
Jul 15
First Quarter
Jul 22
Full
Jul 29
Last Quarter

Hourly Weather History & Observations

Time (MDT) Temp. Heat Index Dew Point Humidity Pressure Visibility Wind Dir Wind Speed Gust Speed Precip Events Conditions
12:54 AM 61.0 °F - 55.0 °F 81% 30.04 in 10.0 mi West 4.6 mph - N/A   Clear
1:54 AM 57.0 °F - 54.0 °F 89% 30.03 in 10.0 mi SSE 3.5 mph - N/A   Clear
2:54 AM 55.0 °F - 53.1 °F 93% 30.04 in 10.0 mi ESE 6.9 mph - N/A   Clear
3:54 AM 55.0 °F - 53.1 °F 93% 30.03 in 10.0 mi SE 4.6 mph - N/A   Clear
4:54 AM 54.0 °F - 52.0 °F 93% 30.02 in 10.0 mi ESE 9.2 mph - N/A   Clear
5:54 AM 54.0 °F - 52.0 °F 93% 30.04 in 10.0 mi SE 4.6 mph - N/A   Clear
6:54 AM 57.9 °F - 53.1 °F 84% 30.04 in 10.0 mi SE 5.8 mph - N/A   Clear
7:54 AM 66.9 °F - 55.9 °F 68% 30.02 in 10.0 mi ESE 3.5 mph - N/A   Clear
8:54 AM 71.1 °F - 57.0 °F 61% 30.03 in 10.0 mi ESE 5.8 mph - N/A   Clear
9:54 AM 75.0 °F - 57.9 °F 55% 30.03 in 10.0 mi Calm Calm - N/A   Clear
10:54 AM 78.1 °F - 59.0 °F 52% 30.04 in 10.0 mi NNW 8.1 mph - N/A   Clear
11:54 AM 77.0 °F - 61.0 °F 58% 30.06 in 10.0 mi North 9.2 mph - N/A   Partly Cloudy
12:54 PM 80.1 °F 80.7 °F 59.0 °F 48% 30.05 in 10.0 mi NNW 3.5 mph - N/A   Clear
1:54 PM 82.0 °F 81.7 °F 57.0 °F 42% 30.05 in 10.0 mi Calm Calm - N/A   Clear
2:54 PM 82.9 °F 82.6 °F 57.9 °F 42% 30.05 in 10.0 mi North 3.5 mph - N/A   Clear
3:54 PM 84.9 °F 83.6 °F 55.0 °F 36% 30.04 in 10.0 mi North 3.5 mph - N/A   Clear
4:54 PM 86.0 °F - 51.1 °F 30% 30.04 in 10.0 mi Calm Calm - N/A   Clear
5:54 PM 84.0 °F 82.9 °F 55.0 °F 37% 30.05 in 10.0 mi NW 5.8 mph - N/A   Clear
6:54 PM 82.9 °F 82.8 °F 59.0 °F 44% 30.04 in 10.0 mi North 4.6 mph - N/A   Clear
7:54 PM 81.0 °F 81.0 °F 57.0 °F 44% 30.04 in 10.0 mi WNW 5.8 mph - N/A   Clear
8:54 PM 73.0 °F - 60.1 °F 64% 30.06 in 10.0 mi East 5.8 mph - N/A   Clear
9:54 PM 69.1 °F - 60.1 °F 73% 30.08 in 10.0 mi East 5.8 mph - N/A   Clear
10:54 PM 68.0 °F - 59.0 °F 73% 30.09 in 10.0 mi East 10.4 mph - N/A   Clear
11:54 PM 64.9 °F - 57.0 °F 75% 30.11 in 10.0 mi East 10.4 mph - N/A   Clear